TimeCDT,TemperatureF,Dew PointF,Humidity,Sea Level PressureIn,VisibilityMPH,Wind Direction,Wind SpeedMPH,Gust SpeedMPH,PrecipitationIn,Events,Conditions,WindDirDegrees,DateUTC
12:53 AM,81.0,78.1,91,30.01,10.0,SSW,5.8,-,N/A,,Scattered Clouds,210,2012-09-03 05:53:00
1:53 AM,80.1,78.1,94,30.01,10.0,SW,3.5,-,N/A,,Clear,230,2012-09-03 06:53:00
2:53 AM,80.1,77.0,90,30.00,10.0,SW,4.6,-,N/A,,Clear,230,2012-09-03 07:53:00
3:43 AM,80.6,77.0,89,29.98,10.0,SW,4.6,-,N/A,,Mostly Cloudy,230,2012-09-03 08:43:00
3:53 AM,80.1,77.0,90,30.00,10.0,SW,5.8,-,N/A,,Mostly Cloudy,230,2012-09-03 08:53:00
4:16 AM,80.6,77.0,89,29.98,10.0,SW,5.8,-,N/A,,Partly Cloudy,220,2012-09-03 09:16:00
4:53 AM,79.0,77.0,94,30.00,10.0,SW,4.6,-,N/A,,Clear,230,2012-09-03 09:53:00
5:53 AM,79.0,75.9,90,30.01,10.0,Calm,Calm,-,N/A,,Clear,0,2012-09-03 10:53:00
6:53 AM,78.1,75.9,93,30.02,9.0,Calm,Calm,-,N/A,,Clear,0,2012-09-03 11:53:00
7:53 AM,80.1,78.1,94,30.04,10.0,Calm,Calm,-,N/A,,Clear,0,2012-09-03 12:53:00
8:53 AM,82.9,78.1,85,30.05,10.0,SW,3.5,-,N/A,,Clear,220,2012-09-03 13:53:00
9:17 AM,84.2,78.8,84,30.03,10.0,SW,8.1,-,N/A,,Mostly Cloudy,230,2012-09-03 14:17:00
9:32 AM,82.4,77.0,84,30.03,10.0,WSW,8.1,-,N/A,,Scattered Clouds,240,2012-09-03 14:32:00
9:53 AM,84.0,75.9,76,30.06,10.0,West,9.2,-,N/A,,Scattered Clouds,260,2012-09-03 14:53:00
10:53 AM,86.0,75.9,72,30.06,10.0,WSW,9.2,-,N/A,,Partly Cloudy,250,2012-09-03 15:53:00
11:53 AM,88.0,75.9,67,30.05,10.0,WSW,8.1,-,N/A,,Partly Cloudy,250,2012-09-03 16:53:00
12:53 PM,90.0,75.0,61,30.04,10.0,SW,8.1,-,N/A,,Scattered Clouds,220,2012-09-03 17:53:00
1:53 PM,90.0,73.9,59,30.02,10.0,SW,5.8,16.1,N/A,,Partly Cloudy,230,2012-09-03 18:53:00
2:53 PM,91.0,75.0,59,30.00,10.0,SW,10.4,16.1,N/A,,Scattered Clouds,230,2012-09-03 19:53:00
3:53 PM,91.0,75.0,59,29.98,10.0,SSW,8.1,-,N/A,,Partly Cloudy,210,2012-09-03 20:53:00
4:53 PM,89.1,79.0,72,29.96,10.0,South,10.4,16.1,N/A,,Partly Cloudy,190,2012-09-03 21:53:00
5:53 PM,88.0,78.1,72,29.96,10.0,SSW,9.2,-,N/A,,Clear,200,2012-09-03 22:53:00
6:53 PM,84.9,75.9,74,29.95,10.0,SSW,6.9,-,N/A,,Clear,200,2012-09-03 23:53:00
7:53 PM,82.0,75.0,79,29.95,10.0,SSW,4.6,-,N/A,,Clear,210,2012-09-04 00:53:00
8:53 PM,81.0,77.0,88,29.96,10.0,SSW,5.8,-,N/A,,Clear,210,2012-09-04 01:53:00
9:53 PM,81.0,77.0,88,29.98,10.0,SW,4.6,-,N/A,,Clear,220,2012-09-04 02:53:00
10:53 PM,80.1,77.0,90,29.99,10.0,SSW,3.5,-,N/A,,Clear,210,2012-09-04 03:53:00
11:53 PM,79.0,77.0,94,29.99,10.0,Calm,Calm,-,N/A,,Clear,0,2012-09-04 04:53:00